IZ4UFQ-10 Weather Reports


Display with metric or nautical units.
time (UTC)temp
F
wind
direction
speed
MPH
gust
MPH
rain 1hr
in
rain 24hr
in
rain mn
in
humidity
%
barometer
mb
20260508225109 59 210 0.0 0.0 0.00 0.00 0.00 75 1016.1
20260508224609 58 209 0.0 0.0 0.00 0.00 0.00 76 1016.1
20260508224109 58 210 0.0 0.0 0.00 0.00 0.00 76 1016.1
20260508223609 58 208 0.0 0.0 0.00 0.00 0.00 77 1016.1
20260508223108 58 208 0.0 0.0 0.00 0.00 0.00 78 1016.1
20260508222608 58 166 0.0 0.0 0.00 0.00 0.00 78 1016.1
20260508222108 58 166 0.0 0.0 0.00 0.00 0.00 79 1016.2
20260508221607 58 129 0.0 0.0 0.00 0.00 0.00 79 1016.2
20260508221107 58 129 0.0 0.0 0.00 0.00 0.00 79 1016.1
20260508220607 58 129 0.0 0.0 0.00 0.00 0.00 79 1016.1
20260508220201 58 129 0.0 0.0 0.00 0.00 0.00 80 1016.1
20260508220106 58 129 0.0 0.0 0.00 0.00 0.00 80 1016.1
20260508215606 58 129 0.0 0.0 0.00 0.00 0.00 80 1016.1
20260508215106 58 129 0.0 0.0 0.00 0.00 0.00 81 1016.0
20260508214606 58 129 0.0 0.0 0.00 0.00 0.00 81 1016.0
20260508214105 58 125 0.0 0.0 0.00 0.00 0.00 82 1016.0
20260508213605 57 125 0.0 0.0 0.00 0.00 0.00 82 1016.0
20260508213105 57 125 0.0 0.0 0.00 0.00 0.00 83 1016.0
20260508212604 57 125 0.0 0.0 0.00 0.00 0.00 83 1015.8
20260508212104 57 125 0.0 0.0 0.00 0.00 0.00 83 1015.8
20260508211604 57 125 0.0 0.0 0.00 0.00 0.00 83 1015.9
20260508211104 57 124 0.0 0.0 0.00 0.00 0.00 83 1015.8
20260508210603 57 125 0.0 0.0 0.00 0.00 0.00 83 1015.8
20260508210103 58 125 0.0 0.0 0.00 0.00 0.00 83 1015.8
20260508205603 57 125 0.0 0.0 0.00 0.00 0.00 83 1015.9
20260508205102 57 125 0.0 0.0 0.00 0.00 0.00 83 1015.9
20260508204639 58 125 0.0 0.0 0.00 0.00 0.00 83 1015.9
20260508204602 58 125 0.0 0.0 0.00 0.00 0.00 83 1015.9
20260508204102 58 124 0.0 0.0 0.00 0.00 0.00 83 1015.9
20260508203602 58 125 0.0 0.0 0.00 0.00 0.00 82 1015.9
20260508203101 58 124 0.0 0.0 0.00 0.00 0.00 82 1016.0
20260508202601 58 125 0.0 0.0 0.00 0.00 0.00 82 1016.0
20260508202101 59 125 0.0 0.0 0.00 0.00 0.00 82 1016.0
20260508201600 59 125 0.0 0.0 0.00 0.00 0.00 82 1016.0
20260508201100 59 125 0.0 0.0 0.00 0.00 0.00 82 1015.9
20260508200600 59 125 0.0 0.0 0.00 0.00 0.00 82 1015.8
20260508200100 59 125 0.0 0.0 0.00 0.00 0.00 81 1015.7
20260508195559 60 125 0.0 0.0 0.00 0.00 0.00 81 1015.7
20260508195059 60 124 0.0 0.0 0.00 0.00 0.00 81 1015.7
20260508194559 60 124 0.0 0.0 0.00 0.00 0.00 80 1015.7
20260508194058 61 125 0.0 0.0 0.00 0.00 0.00 80 1015.7
20260508193558 61 125 0.0 0.0 0.00 0.00 0.00 80 1015.6
20260508193058 61 125 0.0 0.0 0.00 0.00 0.00 80 1015.5
20260508192558 62 125 0.0 0.0 0.00 0.00 0.00 79 1015.5
20260508192057 62 125 0.0 0.0 0.00 0.00 0.00 78 1015.4
20260508191557 63 125 0.0 0.0 0.00 0.00 0.00 78 1015.3
20260508191057 63 124 0.0 0.0 0.00 0.00 0.00 76 1015.2
20260508190556 64 125 0.0 0.0 0.00 0.00 0.00 76 1015.2
20260508190056 64 125 0.0 0.0 0.00 0.00 0.00 75 1015.1
20260508185556 64 125 0.0 0.0 0.00 0.00 0.00 74 1015.0
20260508185056 65 125 0.0 0.0 0.00 0.00 0.00 74 1014.9
20260508184555 65 124 0.0 0.0 0.00 0.00 0.00 73 1014.8
20260508184055 65 125 0.0 0.0 0.00 0.00 0.00 72 1014.7
20260508183555 65 125 0.0 0.0 0.00 0.00 0.00 71 1014.8
20260508183054 66 125 0.0 0.0 0.00 0.00 0.00 70 1014.7
20260508182554 66 125 0.0 0.0 0.00 0.00 0.00 69 1014.6
20260508182054 67 125 0.0 0.0 0.00 0.00 0.00 69 1014.6
20260508181554 67 125 0.0 0.0 0.00 0.00 0.00 68 1014.5
20260508181053 67 125 0.0 0.0 0.00 0.00 0.00 68 1014.6
20260508180553 67 125 0.0 0.0 0.00 0.00 0.00 67 1014.5
20260508180053 67 125 0.0 0.0 0.00 0.00 0.00 67 1014.5
20260508175552 67 124 0.0 0.0 0.00 0.00 0.00 66 1014.4
20260508175052 68 122 0.0 0.0 0.00 0.00 0.00 66 1014.4
20260508174552 68 110 0.0 0.0 0.00 0.00 0.00 65 1014.3
20260508174052 68 118 0.0 0.0 0.00 0.00 0.00 64 1014.3
20260508173551 68 113 0.0 0.0 0.00 0.00 0.00 63 1014.4
20260508173051 68 108 0.0 0.0 0.00 0.00 0.00 63 1014.4
20260508172551 68 104 0.0 0.0 0.00 0.00 0.00 61 1014.3
20260508172050 68 94 0.0 0.0 0.00 0.00 0.00 61 1014.3
20260508171550 68 89 0.0 0.0 0.00 0.00 0.00 60 1014.3
20260508171050 68 155 0.0 0.0 0.00 0.00 0.00 61 1014.3
20260508170549 68 87 0.0 0.0 0.00 0.00 0.00 61 1014.3
20260508170049 68 89 0.0 0.0 0.00 0.00 0.00 60 1014.4
20260508165549 68 106 0.0 0.0 0.00 0.00 0.00 60 1014.3
20260508165049 68 106 0.0 0.0 0.00 0.00 0.00 60 1014.2
20260508164548 68 106 0.0 0.0 0.00 0.00 0.00 58 1014.2
20260508164048 68 102 0.0 0.0 0.00 0.00 0.00 58 1014.2
20260508163548 68 102 0.0 0.0 0.00 0.00 0.00 57 1014.2
20260508163047 68 102 0.0 0.0 0.00 0.00 0.00 57 1014.2
20260508162547 68 101 0.0 0.0 0.00 0.00 0.00 56 1014.1
20260508162047 68 77 0.0 0.0 0.00 0.00 0.00 56 1014.2
20260508161547 69 104 0.0 0.0 0.00 0.00 0.00 57 1014.1
20260508161046 69 71 0.0 0.0 0.00 0.00 0.00 59 1014.2
20260508160546 68 62 0.0 0.0 0.00 0.00 0.00 59 1014.1
20260508160046 68 102 0.0 0.0 0.00 0.00 0.00 60 1014.1
20260508155545 68 61 0.0 0.0 0.00 0.00 0.00 58 1014.1
20260508155045 68 61 0.0 0.0 0.00 0.00 0.00 59 1014.2
20260508154545 68 66 0.0 0.0 0.00 0.00 0.00 58 1014.1
20260508154045 69 60 0.0 0.0 0.00 0.00 0.00 58 1014.2
20260508153544 69 61 0.0 0.0 0.00 0.00 0.00 56 1014.1
20260508153044 69 151 0.0 0.0 0.00 0.00 0.00 61 1014.1
20260508152544 69 60 0.0 0.0 0.00 0.00 0.00 62 1014.1
20260508152043 69 53 0.0 0.0 0.00 0.00 0.00 62 1014.2
20260508151543 69 110 0.0 0.0 0.00 0.00 0.00 62 1014.2
20260508151043 69 151 0.0 0.0 0.00 0.00 0.00 62 1014.2
20260508150543 69 83 0.0 0.0 0.00 0.00 0.00 58 1014.2
20260508150042 69 114 0.0 0.0 0.00 0.00 0.00 61 1014.3
20260508145542 68 81 0.0 0.0 0.00 0.00 0.00 62 1014.4
20260508145042 68 81 0.0 0.0 0.00 0.00 0.00 62 1014.4
20260508144541 68 138 0.0 0.0 0.00 0.00 0.00 64 1014.4
20260508144041 68 100 0.0 0.0 0.00 0.00 0.00 63 1014.5
20260508143541 68 48 0.0 0.0 0.00 0.00 0.00 63 1014.4
20260508143041 68 42 0.0 0.0 0.00 0.00 0.00 63 1014.5
20260508142540 68 61 0.0 0.0 0.00 0.00 0.00 62 1014.5
20260508142040 68 79 0.0 0.0 0.00 0.00 0.00 64 1014.5
20260508141540 68 84 0.0 0.0 0.00 0.00 0.00 64 1014.5
20260508141039 68 114 0.0 0.0 0.00 0.00 0.00 64 1014.5
20260508140539 68 62 0.0 0.0 0.00 0.00 0.00 63 1014.4
20260508140039 68 70 0.0 0.0 0.00 0.00 0.00 63 1014.5
20260508135539 68 56 0.0 0.0 0.00 0.00 0.00 63 1014.5
20260508135038 68 100 0.0 0.0 0.00 0.00 0.00 62 1014.6
20260508134538 68 95 0.0 0.0 0.00 0.00 0.00 62 1014.5
20260508134038 68 133 0.0 0.0 0.00 0.00 0.00 61 1014.7
20260508133537 68 118 0.0 0.0 0.00 0.00 0.00 61 1014.7
20260508133037 68 48 0.0 0.0 0.00 0.00 0.00 61 1014.7
20260508132537 68 52 0.0 0.0 0.00 0.00 0.00 61 1014.7
20260508132037 68 31 0.0 0.0 0.00 0.00 0.00 60 1014.7
20260508131536 68 97 0.0 0.0 0.00 0.00 0.00 61 1014.8
20260508131036 68 68 0.0 0.0 0.00 0.00 0.00 61 1014.8
20260508130536 68 72 0.0 0.0 0.00 0.00 0.00 62 1014.9
20260508130035 68 70 0.0 0.0 0.00 0.00 0.00 61 1014.8
20260508125535 68 88 0.0 0.0 0.00 0.00 0.00 61 1014.8
20260508125035 68 132 0.0 0.0 0.00 0.00 0.00 61 1014.8
20260508124535 68 113 0.0 0.0 0.00 0.00 0.00 61 1014.8
20260508124034 68 74 0.0 0.0 0.00 0.00 0.00 61 1014.9
20260508123534 68 96 0.0 0.0 0.00 0.00 0.00 60 1014.9
20260508123034 68 169 0.0 0.0 0.00 0.00 0.00 60 1014.9
20260508122533 68 106 0.0 0.0 0.00 0.00 0.00 61 1014.9
20260508122033 68 97 0.0 0.0 0.00 0.00 0.00 61 1014.9
20260508121533 68 73 0.0 0.0 0.00 0.00 0.00 62 1014.9
20260508121033 68 60 0.0 0.0 0.00 0.00 0.00 62 1014.9
20260508120532 68 48 0.0 0.0 0.00 0.00 0.00 61 1014.9
20260508120032 68 68 0.0 0.0 0.00 0.00 0.00 65 1014.9
20260508115532 68 83 0.0 0.0 0.00 0.00 0.00 65 1014.9
20260508115031 68 66 0.0 0.0 0.00 0.00 0.00 64 1014.9
20260508114531 67 95 0.0 0.0 0.00 0.00 0.00 65 1014.8
20260508114031 67 133 0.0 0.0 0.00 0.00 0.00 67 1014.8
20260508113530 67 67 0.0 0.0 0.00 0.00 0.00 67 1014.9
20260508113030 67 113 0.0 0.0 0.00 0.00 0.00 66 1014.8
20260508112530 67 64 0.0 0.0 0.00 0.00 0.00 67 1014.9
20260508112030 67 74 0.0 0.0 0.00 0.00 0.00 67 1014.9
20260508111529 67 104 0.0 0.0 0.00 0.00 0.00 69 1015.0
20260508111029 67 15 0.0 0.0 0.00 0.00 0.00 69 1015.1
20260508110529 67 39 0.0 0.0 0.00 0.00 0.00 70 1015.1
20260508110028 67 128 0.0 0.0 0.00 0.00 0.00 69 1015.1
20260508105528 67 71 0.0 0.0 0.00 0.00 0.00 70 1015.2
20260508105028 67 18 0.0 0.0 0.00 0.00 0.00 70 1015.2
20260508104528 67 10 0.0 0.0 0.00 0.00 0.00 70 1015.2
20260508104027 67 62 0.0 0.0 0.00 0.00 0.00 69 1015.3
20260508103527 67 11 0.0 0.0 0.00 0.00 0.00 71 1015.3
20260508103027 67 77 0.0 0.0 0.00 0.00 0.00 70 1015.3
20260508102526 67 63 0.0 0.0 0.00 0.00 0.00 69 1015.3
20260508102026 67 73 0.0 0.0 0.00 0.00 0.00 69 1015.4
20260508101526 67 84 0.0 0.0 0.00 0.00 0.00 69 1015.4
20260508101026 67 52 0.0 0.0 0.00 0.00 0.00 69 1015.4
20260508100525 67 21 0.0 0.0 0.00 0.00 0.00 70 1015.4
20260508100025 67 8 0.0 0.0 0.00 0.00 0.00 71 1015.4
20260508095525 66 76 0.0 0.0 0.00 0.00 0.00 70 1015.5
20260508095024 66 22 0.0 0.0 0.00 0.00 0.00 71 1015.5
20260508094524 66 117 0.0 0.0 0.00 0.00 0.00 71 1015.4
20260508094024 66 93 0.0 0.0 0.00 0.00 0.00 72 1015.4
20260508093524 66 108 0.0 0.0 0.00 0.00 0.00 72 1015.4
20260508093023 66 108 0.0 0.0 0.00 0.00 0.00 74 1015.4
20260508092523 66 90 0.0 0.0 0.00 0.00 0.00 74 1015.4
20260508092023 66 70 0.0 0.0 0.00 0.00 0.00 73 1015.5
20260508091522 66 52 0.0 0.0 0.00 0.00 0.00 74 1015.5
20260508091022 65 83 0.0 0.0 0.00 0.00 0.00 75 1015.4
20260508090522 65 44 0.0 0.0 0.00 0.00 0.00 75 1015.5
20260508090022 65 31 0.0 0.0 0.00 0.00 0.00 74 1015.5
20260508085521 65 82 0.0 0.0 0.00 0.00 0.00 72 1015.4
20260508085021 66 85 0.0 0.0 0.00 0.00 0.00 73 1015.5
20260508084521 66 111 0.0 0.0 0.00 0.00 0.00 73 1015.5
20260508084020 65 70 0.0 0.0 0.00 0.00 0.00 75 1015.5
20260508083520 65 10 0.0 0.0 0.00 0.00 0.00 75 1015.5
20260508083020 65 4 0.0 0.0 0.00 0.00 0.00 75 1015.5
20260508082520 64 14 0.0 0.0 0.00 0.00 0.00 75 1015.5
20260508082019 64 14 0.0 0.0 0.00 0.00 0.00 74 1015.5
20260508081519 64 327 0.0 0.0 0.00 0.00 0.00 74 1015.5
20260508081019 65 321 0.0 0.0 0.00 0.00 0.00 74 1015.5
20260508080518 64 321 0.0 0.0 0.00 0.00 0.00 75 1015.5
20260508080018 64 320 0.0 0.0 0.00 0.00 0.00 76 1015.5
20260508075518 63 318 0.0 0.0 0.00 0.00 0.00 75 1015.5
20260508075018 63 316 0.0 0.0 0.00 0.00 0.00 76 1015.5
20260508074517 63 316 0.0 0.0 0.00 0.00 0.00 77 1015.5
20260508074017 62 318 0.0 0.0 0.00 0.00 0.00 77 1015.5
20260508073517 62 318 0.0 0.0 0.00 0.00 0.00 76 1015.5
20260508073016 62 307 0.0 0.0 0.00 0.00 0.00 77 1015.4
20260508072516 61 308 0.0 0.0 0.00 0.00 0.00 77 1015.4
20260508072016 61 296 0.0 0.0 0.00 0.00 0.00 79 1015.4
20260508071516 61 291 0.0 0.0 0.00 0.00 0.00 80 1015.3
20260508071015 61 293 0.0 0.0 0.00 0.00 0.00 79 1015.3
20260508070515 61 293 0.0 0.0 0.00 0.00 0.00 80 1015.4
20260508070015 61 253 0.0 0.0 0.00 0.00 0.00 81 1015.3
20260508065514 60 252 0.0 0.0 0.00 0.00 0.00 81 1015.3
20260508065014 60 251 0.0 0.0 0.00 0.00 0.00 83 1015.3
20260508064514 59 251 0.0 0.0 0.00 0.00 0.00 84 1015.3
20260508064014 59 251 0.0 0.0 0.00 0.00 0.00 84 1015.3
20260508063513 58 251 0.0 0.0 0.00 0.00 0.00 83 1015.3
20260508063013 58 249 0.0 0.0 0.00 0.00 0.00 84 1015.2
20260508062513 58 249 0.0 0.0 0.00 0.00 0.00 83 1015.1
20260508062013 58 194 0.0 0.0 0.00 0.00 0.00 83 1015.2
20260508061512 58 194 0.0 0.0 0.00 0.00 0.00 84 1015.2
20260508061012 58 194 0.0 0.0 0.00 0.00 0.00 84 1015.0
20260508060511 58 194 0.0 0.0 0.00 0.00 0.00 84 1015.0
20260508060011 58 194 0.0 0.0 0.00 0.00 0.00 84 1014.9
20260508055511 58 194 0.0 0.0 0.00 0.00 0.00 84 1014.8
20260508055011 58 194 0.0 0.0 0.00 0.00 0.00 83 1014.7
20260508054510 58 194 0.0 0.0 0.00 0.00 0.00 83 1014.7
20260508054010 58 194 0.0 0.0 0.00 0.00 0.00 83 1014.6
20260508053510 57 194 0.0 0.0 0.00 0.00 0.00 83 1014.5
20260508053010 57 194 0.0 0.0 0.00 0.00 0.00 84 1014.6
20260508052509 57 194 0.0 0.0 0.00 0.00 0.00 84 1014.5
20260508052009 57 195 0.0 0.0 0.00 0.00 0.00 84 1014.5
20260508051509 57 194 0.0 0.0 0.00 0.00 0.00 84 1014.4
20260508051008 57 194 0.0 0.0 0.00 0.00 0.00 84 1014.4
20260508050508 57 195 0.0 0.0 0.00 0.00 0.00 85 1014.3
20260508050008 57 194 0.0 0.0 0.00 0.00 0.00 85 1014.4
20260508045507 57 194 0.0 0.0 0.00 0.00 0.00 85 1014.4
20260508045007 56 194 0.0 0.0 0.00 0.00 0.00 85 1014.3
20260508044507 56 194 0.0 0.0 0.00 0.00 0.00 85 1014.3
20260508044007 56 194 0.0 0.0 0.00 0.00 0.00 85 1014.2
20260508043506 56 194 0.0 0.0 0.00 0.00 0.00 85 1014.1
20260508043006 56 194 0.0 0.0 0.00 0.00 0.00 85 1014.1
20260508042506 56 194 0.0 0.0 0.00 0.00 0.00 85 1014.1
20260508042006 56 194 0.0 0.0 0.00 0.00 0.00 85 1014.1
20260508041505 56 194 0.0 0.0 0.00 0.00 0.00 85 1014.2
20260508041005 56 194 0.0 0.0 0.00 0.00 0.00 84 1014.1
20260508040505 55 194 0.0 0.0 0.00 0.00 0.00 84 1014.0
20260508040005 55 194 0.0 0.0 0.00 0.00 0.00 84 1014.0
20260508035504 55 194 0.0 0.0 0.00 0.00 0.00 84 1013.9
20260508035004 55 194 0.0 0.0 0.00 0.00 0.00 84 1013.9
20260508034504 55 194 0.0 0.0 0.00 0.00 0.00 84 1013.9
20260508034003 55 194 0.0 0.0 0.00 0.00 0.00 84 1013.9
20260508033503 55 194 0.0 0.0 0.00 0.00 0.00 84 1013.9
20260508033003 55 194 0.0 0.0 0.00 0.00 0.00 83 1013.9
20260508032502 54 194 0.0 0.0 0.00 0.00 0.00 83 1013.9
20260508032002 54 194 0.0 0.0 0.00 0.00 0.00 83 1013.8
20260508031502 54 194 0.0 0.0 0.00 0.00 0.00 83 1013.7
20260508031001 54 194 0.0 0.0 0.00 0.00 0.00 83 1013.8
20260508030501 54 194 0.0 0.0 0.00 0.00 0.00 83 1013.8
20260508030001 54 194 0.0 0.0 0.00 0.00 0.00 83 1013.8
20260508025501 54 194 0.0 0.0 0.00 0.00 0.00 83 1013.6
20260508025000 54 194 0.0 0.0 0.00 0.00 0.00 83 1013.7
20260508024500 54 194 0.0 0.0 0.00 0.00 0.00 83 1013.7
20260508024000 54 195 0.0 0.0 0.00 0.00 0.00 83 1013.7
20260508023459 53 194 0.0 0.0 0.00 0.00 0.00 82 1013.6
20260508022959 54 194 0.0 0.0 0.00 0.00 0.00 82 1013.7
20260508022459 54 195 0.0 0.0 0.00 0.00 0.00 81 1013.8
20260508021959 54 194 0.0 0.0 0.00 0.00 0.00 81 1013.8
20260508021458 54 194 0.0 0.0 0.00 0.00 0.00 80 1013.8
20260508020958 54 194 0.0 0.0 0.00 0.00 0.00 80 1013.8
20260508020458 54 194 0.0 0.0 0.00 0.00 0.00 80 1013.7
20260508015957 54 194 0.0 0.0 0.00 0.00 0.00 79 1013.8
20260508015457 55 194 0.0 0.0 0.00 0.00 0.00 79 1013.8
20260508014957 55 192 0.0 0.0 0.00 0.00 0.00 79 1013.8
20260508014457 55 192 0.0 0.0 0.00 0.00 0.00 80 1013.8
20260508013956 55 192 0.0 0.0 0.00 0.00 0.00 81 1013.8
20260508013456 54 192 0.0 0.0 0.00 0.00 0.00 81 1013.8
20260508012956 54 192 0.0 0.0 0.00 0.00 0.00 82 1013.9
20260508012455 54 192 0.0 0.0 0.00 0.00 0.00 81 1013.8
20260508011955 54 192 0.0 0.0 0.00 0.00 0.00 82 1013.9
20260508011455 54 192 0.0 0.0 0.00 0.00 0.00 82 1013.8
20260508010955 54 192 0.0 0.0 0.00 0.00 0.00 82 1013.8
20260508010454 54 192 0.0 0.0 0.00 0.00 0.00 83 1013.7
20260508005954 54 139 0.0 0.0 0.00 0.00 0.00 83 1013.7
20260508005454 54 138 0.0 0.0 0.00 0.00 0.00 84 1013.5
20260508004953 54 139 0.0 0.0 0.00 0.00 0.00 84 1013.4
20260508004453 54 139 0.0 0.0 0.00 0.00 0.00 84 1013.5
20260508003953 54 138 0.0 0.0 0.00 0.00 0.00 84 1013.5
20260508003453 54 139 0.0 0.0 0.00 0.00 0.00 84 1013.5
20260508002952 54 139 0.0 0.0 0.00 0.00 0.00 84 1013.6
20260508002452 54 138 0.0 0.0 0.00 0.00 0.00 84 1013.6
20260508001952 54 138 0.0 0.0 0.00 0.00 0.00 84 1013.7
20260508001451 54 139 0.0 0.0 0.00 0.00 0.00 84 1013.7
20260508000951 54 139 0.0 0.0 0.00 0.00 0.00 84 1013.7
20260508000451 54 139 0.0 0.0 0.00 0.00 0.00 84 1013.7
20260507235951 54 139 0.0 0.0 0.00 0.00 0.00 84 1013.7
20260507235450 54 139 0.0 0.0 0.00 0.00 0.00 84 1013.7
20260507234950 54 138 0.0 0.0 0.00 0.00 0.00 84 1013.8
20260507234450 55 138 0.0 0.0 0.00 0.00 0.00 84 1013.7
20260507233950 55 137 0.0 0.0 0.00 0.00 0.00 84 1013.8
20260507233449 55 137 0.0 0.0 0.00 0.00 0.00 84 1013.8
20260507232949 55 137 0.0 0.0 0.00 0.00 0.00 84 1013.8
20260507232449 55 137 0.0 0.0 0.00 0.00 0.00 84 1013.8
20260507231948 55 137 0.0 0.0 0.00 0.00 0.00 84 1013.8
20260507231448 55 137 0.0 0.0 0.00 0.00 0.00 84 1013.7
20260507230948 55 137 0.0 0.0 0.00 0.00 0.00 84 1013.8
20260507230447 56 137 0.0 0.0 0.00 0.00 0.00 84 1013.8
20260507225947 56 137 0.0 0.0 0.00 0.00 0.00 84 1013.8
20260507225447 56 137 0.0 0.0 0.00 0.00 0.00 84 1013.8